TimeEDT,TemperatureF,Dew PointF,Humidity,Sea Level PressureIn,VisibilityMPH,Wind Direction,Wind SpeedMPH,Gust SpeedMPH,PrecipitationIn,Events,Conditions,WindDirDegrees,DateUTC
12:52 AM,30.0,28.0,92,30.06,10.0,Calm,Calm,-,N/A,,Mostly Cloudy,0,2013-03-29 04:52:00
1:52 AM,30.0,28.0,92,30.06,10.0,Calm,Calm,-,N/A,,Mostly Cloudy,0,2013-03-29 05:52:00
2:52 AM,30.0,28.0,92,30.06,10.0,SSW,3.5,-,N/A,,Overcast,210,2013-03-29 06:52:00
3:52 AM,30.9,28.9,92,30.05,10.0,Calm,Calm,-,N/A,,Overcast,0,2013-03-29 07:52:00
4:52 AM,30.0,28.0,92,30.06,10.0,Calm,Calm,-,N/A,,Overcast,0,2013-03-29 08:52:00
5:52 AM,28.9,27.0,92,30.06,10.0,Calm,Calm,-,N/A,,Overcast,0,2013-03-29 09:52:00
6:52 AM,28.0,26.1,92,30.06,10.0,Calm,Calm,-,N/A,,Mostly Cloudy,0,2013-03-29 10:52:00
7:52 AM,30.9,28.0,89,30.08,10.0,Calm,Calm,-,N/A,,Overcast,0,2013-03-29 11:52:00
8:52 AM,36.0,32.0,86,30.08,10.0,Calm,Calm,-,N/A,,Clear,0,2013-03-29 12:52:00
9:52 AM,46.0,30.9,56,30.07,10.0,NW,9.2,-,N/A,,Clear,320,2013-03-29 13:52:00
10:52 AM,48.9,30.0,48,30.06,10.0,WNW,11.5,-,N/A,,Clear,300,2013-03-29 14:52:00
11:52 AM,51.1,30.0,44,30.05,10.0,Variable,4.6,-,N/A,,Scattered Clouds,0,2013-03-29 15:52:00
12:52 PM,52.0,28.9,41,30.03,10.0,WNW,8.1,-,N/A,,Mostly Cloudy,290,2013-03-29 16:52:00
1:52 PM,52.0,28.0,40,30.01,10.0,NW,8.1,-,N/A,,Mostly Cloudy,320,2013-03-29 17:52:00
2:52 PM,52.0,26.1,37,30.00,10.0,WNW,8.1,18.4,N/A,,Overcast,290,2013-03-29 18:52:00
3:52 PM,52.0,24.1,34,30.00,10.0,West,10.4,-,N/A,,Overcast,280,2013-03-29 19:52:00
4:52 PM,50.0,27.0,41,30.01,10.0,WNW,12.7,-,N/A,,Overcast,290,2013-03-29 20:52:00
5:52 PM,46.9,28.9,50,30.03,10.0,WNW,10.4,19.6,N/A,,Overcast,300,2013-03-29 21:52:00
6:52 PM,46.0,28.9,51,30.04,10.0,West,9.2,-,N/A,,Overcast,280,2013-03-29 22:52:00
7:52 PM,44.1,30.0,58,30.05,10.0,WNW,6.9,-,N/A,,Overcast,300,2013-03-29 23:52:00
8:52 PM,43.0,30.0,60,30.06,10.0,NNW,5.8,-,N/A,,Overcast,330,2013-03-30 00:52:00
9:52 PM,42.1,30.0,62,30.07,10.0,Calm,Calm,-,N/A,,Overcast,0,2013-03-30 01:52:00
10:52 PM,41.0,30.0,65,30.07,10.0,NW,3.5,-,N/A,,Overcast,320,2013-03-30 02:52:00
11:52 PM,39.9,30.0,68,30.07,10.0,WNW,3.5,-,N/A,,Overcast,300,2013-03-30 03:52:00